| time (UTC) | temp C | wind direction | speed KPH | gust KPH | rain 1hr cm | rain 24hr cm | rain mn cm | humidity % | barometer mb |
| 20260906100726 | 15 | 0 | 0.0 | 0.0 | 364.13 | 0.00 | 0.51 | 99 | 1015.3 |
| 20260906100234 | 15 | 0 | 0.0 | 0.0 | 364.13 | 0.00 | 0.51 | 99 | 1015.2 |
| 20260906095725 | 15 | 325 | 0.0 | 3.2 | 364.13 | 0.00 | 0.51 | 98 | 1015.2 |
| 20260906095225 | 15 | 0 | 1.6 | 0.0 | 364.13 | 0.00 | 0.51 | 99 | 1015.2 |
| 20260906094729 | 15 | 0 | 0.0 | 0.0 | 364.13 | 0.00 | 0.51 | 99 | 1015.1 |
| 20260906094225 | 15 | 0 | 0.0 | 0.0 | 364.11 | 0.00 | 0.48 | 99 | 1015.1 |
| 20260906093226 | 15 | 0 | 0.0 | 0.0 | 364.11 | 0.00 | 0.48 | 99 | 1015.0 |
| 20260906092725 | 15 | 0 | 0.0 | 0.0 | 364.11 | 0.00 | 0.48 | 98 | 1014.9 |
| 20260906091725 | 15 | 0 | 0.0 | 0.0 | 364.08 | 0.00 | 0.46 | 99 | 1014.9 |
| 20260906091225 | 15 | 0 | 0.0 | 0.0 | 364.08 | 0.00 | 0.46 | 99 | 1014.8 |
| 20260906090725 | 15 | 0 | 0.0 | 0.0 | 364.08 | 0.00 | 0.46 | 99 | 1014.7 |
| 20260906090225 | 15 | 0 | 0.0 | 0.0 | 364.08 | 0.00 | 0.46 | 99 | 1014.8 |
| 20260906085225 | 15 | 0 | 0.0 | 0.0 | 364.08 | 0.00 | 0.46 | 99 | 1014.7 |
| 20260906084728 | 15 | 0 | 0.0 | 0.0 | 364.08 | 0.00 | 0.46 | 99 | 1014.7 |
| 20260906084225 | 15 | 0 | 0.0 | 0.0 | 364.06 | 0.00 | 0.43 | 99 | 1014.7 |
| 20260906083725 | 15 | 0 | 0.0 | 0.0 | 364.06 | 0.00 | 0.43 | 99 | 1014.6 |
| 20260906083225 | 15 | 0 | 0.0 | 0.0 | 364.01 | 0.00 | 0.38 | 99 | 1014.6 |
| 20260906082725 | 15 | 0 | 0.0 | 0.0 | 364.01 | 0.00 | 0.38 | 98 | 1014.6 |
| 20260906082225 | 15 | 0 | 0.0 | 0.0 | 363.98 | 0.00 | 0.36 | 99 | 1014.5 |
| 20260906081725 | 15 | 0 | 0.0 | 0.0 | 363.93 | 0.00 | 0.30 | 99 | 1014.5 |
| 20260906081225 | 15 | 0 | 0.0 | 0.0 | 363.91 | 0.00 | 0.28 | 99 | 1014.5 |
| 20260906080725 | 15 | 253 | 0.0 | 1.6 | 363.91 | 0.00 | 0.28 | 99 | 1014.5 |
| 20260906080226 | 15 | 253 | 0.0 | 1.6 | 363.91 | 0.00 | 0.28 | 99 | 1014.3 |
| 20260906075725 | 15 | 352 | 0.0 | 4.8 | 363.91 | 0.00 | 0.28 | 98 | 1014.3 |
| 20260906074725 | 15 | 285 | 0.0 | 6.4 | 363.91 | 0.00 | 0.28 | 99 | 1014.2 |
| 20260906073225 | 15 | 293 | 0.0 | 4.8 | 363.91 | 0.00 | 0.28 | 99 | 1014.2 |
| 20260906072725 | 15 | 297 | 1.6 | 4.8 | 363.91 | 0.00 | 0.28 | 98 | 1014.1 |
| 20260906072225 | 15 | 264 | 1.6 | 4.8 | 363.91 | 0.00 | 0.28 | 99 | 1014.1 |
| 20260906071725 | 15 | 260 | 3.2 | 3.2 | 363.91 | 0.00 | 0.28 | 99 | 1014.0 |
| 20260906071225 | 15 | 256 | 0.0 | 1.6 | 363.91 | 0.00 | 0.28 | 99 | 1013.9 |
| 20260906070725 | 15 | 307 | 0.0 | 3.2 | 363.88 | 0.00 | 0.25 | 99 | 1013.9 |
| 20260906070225 | 15 | 309 | 1.6 | 4.8 | 363.88 | 0.00 | 0.25 | 99 | 1014.0 |
| 20260906065225 | 15 | 252 | 0.0 | 8.0 | 363.83 | 0.00 | 0.20 | 99 | 1014.1 |
| 20260906064725 | 15 | 252 | 0.0 | 3.2 | 363.80 | 0.00 | 0.18 | 99 | 1014.1 |
| 20260906063725 | 15 | 281 | 0.0 | 4.8 | 363.75 | 0.00 | 0.13 | 99 | 1014.1 |
| 20260906063228 | 15 | 287 | 3.2 | 4.8 | 363.73 | 0.00 | 0.10 | 99 | 1014.1 |
| 20260906062224 | 15 | 319 | 0.0 | 1.6 | 363.73 | 0.00 | 0.10 | 99 | 1014.0 |
| 20260906061729 | 15 | 298 | 0.0 | 3.2 | 363.73 | 0.00 | 0.10 | 99 | 1014.0 |
| 20260906061225 | 15 | 288 | 0.0 | 4.8 | 363.73 | 0.00 | 0.10 | 99 | 1014.0 |
| 20260906060229 | 15 | 291 | 3.2 | 6.4 | 363.70 | 0.00 | 0.08 | 99 | 1014.1 |
| 20260906055724 | 15 | 274 | 0.0 | 8.0 | 363.70 | 0.00 | 0.08 | 98 | 1014.2 |
| 20260906054725 | 15 | 280 | 1.6 | 6.4 | 363.70 | 0.00 | 0.08 | 99 | 1014.2 |
| 20260906053229 | 15 | 278 | 4.8 | 4.8 | 363.68 | 0.00 | 0.05 | 99 | 1014.1 |
| 20260906052724 | 15 | 257 | 1.6 | 4.8 | 363.68 | 0.00 | 0.05 | 98 | 1014.1 |
| 20260906052224 | 15 | 280 | 3.2 | 6.4 | 363.68 | 0.00 | 0.05 | 99 | 1014.1 |
| 20260906051729 | 15 | 305 | 0.0 | 4.8 | 363.68 | 0.00 | 0.05 | 99 | 1014.1 |
| 20260906051224 | 15 | 269 | 0.0 | 4.8 | 363.68 | 0.00 | 0.05 | 98 | 1014.2 |
| 20260906050726 | 15 | 314 | 1.6 | 3.2 | 363.68 | 0.00 | 0.05 | 98 | 1014.2 |
| 20260906050228 | 15 | 312 | 1.6 | 4.8 | 363.68 | 0.00 | 0.05 | 98 | 1014.2 |
| 20260906044729 | 16 | 305 | 0.0 | 3.2 | 363.68 | 0.00 | 0.05 | 98 | 1014.2 |
| 20260906043724 | 16 | 291 | 6.4 | 3.2 | 363.65 | 0.00 | 0.03 | 98 | 1014.3 |
| 20260906043225 | 16 | 0 | 0.0 | 0.0 | 363.65 | 0.00 | 0.03 | 98 | 1014.3 |
| 20260906041725 | 16 | 288 | 1.6 | 8.0 | 363.65 | 0.00 | 0.03 | 98 | 1014.3 |
| 20260906041224 | 16 | 322 | 1.6 | 4.8 | 363.65 | 0.00 | 0.03 | 99 | 1014.3 |
| 20260906040225 | 16 | 278 | 3.2 | 6.4 | 363.63 | 0.00 | 0.00 | 98 | 1014.1 |
| 20260906035724 | 16 | 290 | 0.0 | 6.4 | 363.63 | 0.00 | 0.00 | 98 | 1014.1 |
| 20260906034728 | 16 | 287 | 1.6 | 6.4 | 363.63 | 0.00 | 1.70 | 98 | 1014.1 |
| 20260906033724 | 16 | 291 | 0.0 | 3.2 | 363.63 | 0.00 | 1.70 | 98 | 1014.0 |
| 20260906033225 | 16 | 295 | 0.0 | 3.2 | 363.63 | 0.00 | 1.70 | 98 | 1013.9 |
| 20260906032224 | 16 | 273 | 3.2 | 6.4 | 363.60 | 0.00 | 1.68 | 98 | 1013.9 |
| 20260906031725 | 16 | 278 | 1.6 | 3.2 | 363.60 | 0.00 | 1.68 | 98 | 1013.9 |
| 20260906031224 | 16 | 273 | 0.0 | 4.8 | 363.60 | 0.00 | 1.68 | 98 | 1013.9 |
| 20260906030724 | 16 | 297 | 3.2 | 3.2 | 363.60 | 0.00 | 1.68 | 98 | 1014.0 |
| 20260906030225 | 16 | 274 | 1.6 | 4.8 | 363.60 | 0.00 | 1.68 | 98 | 1014.0 |
| 20260906025724 | 16 | 297 | 1.6 | 3.2 | 363.60 | 0.00 | 1.68 | 98 | 1014.0 |
| 20260906024725 | 16 | 271 | 0.0 | 3.2 | 363.60 | 0.00 | 1.68 | 98 | 1014.0 |
| 20260906024224 | 16 | 290 | 0.0 | 6.4 | 363.60 | 0.00 | 1.68 | 98 | 1014.0 |
| 20260906023724 | 16 | 283 | 4.8 | 6.4 | 363.60 | 0.00 | 1.68 | 98 | 1013.9 |
| 20260906023225 | 16 | 288 | 3.2 | 3.2 | 363.60 | 0.00 | 1.68 | 98 | 1014.0 |
| 20260906022724 | 16 | 316 | 3.2 | 4.8 | 363.60 | 0.00 | 1.68 | 98 | 1014.0 |
| 20260906022224 | 16 | 283 | 1.6 | 4.8 | 363.60 | 0.00 | 1.68 | 98 | 1013.9 |
| 20260906021725 | 16 | 276 | 0.0 | 1.6 | 363.60 | 0.00 | 1.68 | 98 | 1013.8 |
| 20260906021224 | 16 | 285 | 1.6 | 3.2 | 363.60 | 0.00 | 1.68 | 98 | 1013.8 |
| 20260906020724 | 16 | 0 | 1.6 | 0.0 | 363.60 | 0.00 | 1.68 | 98 | 1013.9 |
| 20260906020225 | 16 | 0 | 0.0 | 0.0 | 363.60 | 0.00 | 1.68 | 98 | 1013.9 |
| 20260906015724 | 16 | 257 | 0.0 | 3.2 | 363.60 | 0.00 | 1.68 | 97 | 1013.8 |
| 20260906015224 | 16 | 273 | 1.6 | 4.8 | 363.60 | 0.00 | 1.68 | 98 | 1013.8 |
| 20260906014725 | 16 | 291 | 3.2 | 3.2 | 363.60 | 0.00 | 1.68 | 98 | 1013.9 |
| 20260906014224 | 16 | 252 | 0.0 | 0.0 | 363.58 | 0.00 | 1.65 | 98 | 1013.9 |
| 20260906013724 | 16 | 0 | 0.0 | 0.0 | 363.58 | 0.00 | 1.65 | 98 | 1014.0 |
| 20260906013225 | 16 | 0 | 0.0 | 0.0 | 363.52 | 0.00 | 1.60 | 98 | 1014.2 |
| 20260906011725 | 16 | 287 | 0.0 | 1.6 | 363.50 | 0.00 | 1.57 | 98 | 1014.0 |
| 20260906010724 | 16 | 293 | 0.0 | 4.8 | 363.47 | 0.00 | 1.55 | 98 | 1014.1 |
| 20260906010225 | 16 | 281 | 0.0 | 4.8 | 363.47 | 0.00 | 1.55 | 98 | 1014.0 |
| 20260906005724 | 16 | 288 | 1.6 | 4.8 | 363.47 | 0.00 | 1.55 | 97 | 1013.9 |
| 20260906005224 | 16 | 276 | 3.2 | 6.4 | 363.47 | 0.00 | 1.55 | 98 | 1013.8 |
| 20260906004725 | 16 | 281 | 3.2 | 3.2 | 363.47 | 0.00 | 1.55 | 97 | 1013.8 |
| 20260906003225 | 17 | 0 | 1.6 | 0.0 | 363.45 | 0.00 | 1.52 | 97 | 1013.7 |
| 20260906002724 | 17 | 0 | 0.0 | 0.0 | 363.45 | 0.00 | 1.52 | 97 | 1013.6 |
| 20260906002224 | 17 | 293 | 0.0 | 3.2 | 363.45 | 0.00 | 1.52 | 97 | 1013.5 |
| 20260906001725 | 17 | 0 | 0.0 | 0.0 | 363.42 | 0.00 | 1.50 | 97 | 1013.5 |
| 20260906001224 | 17 | 0 | 0.0 | 0.0 | 363.42 | 0.00 | 1.50 | 97 | 1013.5 |
| 20260906000226 | 17 | 300 | 0.0 | 1.6 | 363.42 | 0.00 | 1.50 | 97 | 1013.5 |
| 20260905235224 | 17 | 0 | 0.0 | 0.0 | 363.42 | 0.00 | 1.50 | 97 | 1013.4 |
| 20260905234725 | 17 | 281 | 0.0 | 1.6 | 363.42 | 0.00 | 1.50 | 97 | 1013.5 |
| 20260905234224 | 17 | 0 | 0.0 | 0.0 | 363.42 | 0.00 | 1.50 | 97 | 1013.4 |
| 20260905233724 | 17 | 0 | 0.0 | 0.0 | 363.42 | 0.00 | 1.50 | 97 | 1013.4 |
| 20260905233225 | 17 | 0 | 0.0 | 0.0 | 363.42 | 0.00 | 1.50 | 97 | 1013.3 |
| 20260905232224 | 17 | 287 | 0.0 | 1.6 | 363.42 | 0.00 | 1.50 | 96 | 1013.2 |
| 20260905231724 | 17 | 285 | 0.0 | 1.6 | 363.42 | 0.00 | 1.50 | 97 | 1013.2 |
| 20260905230224 | 17 | 281 | 0.0 | 4.8 | 363.42 | 0.00 | 1.50 | 96 | 1013.1 |
| 20260905225724 | 17 | 273 | 3.2 | 6.4 | 363.42 | 0.00 | 1.50 | 96 | 1013.1 |
| 20260905225224 | 17 | 0 | 0.0 | 0.0 | 363.42 | 0.00 | 1.50 | 96 | 1013.0 |
| 20260905224724 | 17 | 0 | 0.0 | 0.0 | 363.42 | 0.00 | 1.50 | 96 | 1012.9 |
| 20260905223224 | 17 | 0 | 0.0 | 0.0 | 363.42 | 0.00 | 1.50 | 94 | 1012.7 |
| 20260905222724 | 17 | 0 | 0.0 | 0.0 | 363.42 | 0.00 | 1.50 | 94 | 1012.8 |
| 20260905222224 | 17 | 0 | 0.0 | 0.0 | 363.42 | 0.00 | 1.50 | 94 | 1012.7 |
| 20260905221724 | 17 | 0 | 0.0 | 0.0 | 363.42 | 0.00 | 1.50 | 94 | 1012.6 |
| 20260905220724 | 17 | 0 | 0.0 | 0.0 | 363.42 | 0.00 | 1.50 | 93 | 1012.7 |
| 20260905220225 | 17 | 0 | 0.0 | 0.0 | 363.42 | 0.00 | 1.50 | 92 | 1012.7 |
| 20260905215724 | 17 | 0 | 0.0 | 0.0 | 363.42 | 0.00 | 1.50 | 92 | 1012.7 |
| 20260905214724 | 18 | 0 | 0.0 | 0.0 | 363.35 | 0.00 | 1.42 | 90 | 1012.5 |
| 20260905214224 | 18 | 0 | 0.0 | 0.0 | 363.32 | 0.00 | 1.40 | 90 | 1012.5 |
| 20260905213724 | 18 | 0 | 0.0 | 0.0 | 363.30 | 0.00 | 1.37 | 89 | 1012.4 |
| 20260905213225 | 18 | 0 | 0.0 | 0.0 | 363.22 | 0.00 | 1.30 | 89 | 1012.3 |
| 20260905212724 | 18 | 0 | 0.0 | 0.0 | 363.17 | 0.00 | 1.24 | 88 | 1012.3 |
| 20260905212224 | 18 | 72 | 0.0 | 1.6 | 363.07 | 0.00 | 1.14 | 88 | 1012.2 |
| 20260905211725 | 18 | 55 | 0.0 | 8.0 | 362.94 | 0.00 | 1.02 | 88 | 1012.2 |
| 20260905211224 | 19 | 52 | 1.6 | 3.2 | 362.89 | 0.00 | 0.97 | 87 | 1012.2 |
| 20260905210724 | 19 | 25 | 1.6 | 3.2 | 362.81 | 0.00 | 0.89 | 87 | 1012.1 |
| 20260905210224 | 20 | 55 | 1.6 | 3.2 | 362.79 | 0.00 | 0.86 | 85 | 1012.0 |
| 20260905205724 | 20 | 60 | 0.0 | 3.2 | 362.76 | 0.00 | 0.84 | 84 | 1011.8 |
| 20260905204724 | 20 | 58 | 3.2 | 4.8 | 362.43 | 0.00 | 0.51 | 84 | 1011.7 |
| 20260905204224 | 20 | 274 | 0.0 | 3.2 | 361.95 | 0.00 | 0.03 | 81 | 1011.6 |
| 20260905203724 | 20 | 290 | 1.6 | 4.8 | 361.95 | 0.00 | 0.03 | 81 | 1011.4 |
| 20260905203224 | 20 | 276 | 3.2 | 8.0 | 361.95 | 0.00 | 0.03 | 82 | 1011.3 |
| 20260905202724 | 20 | 280 | 1.6 | 8.0 | 361.95 | 0.00 | 0.03 | 82 | 1011.2 |
| 20260905202224 | 20 | 264 | 1.6 | 6.4 | 361.95 | 0.00 | 0.03 | 84 | 1011.2 |
| 20260905201725 | 20 | 280 | 3.2 | 3.2 | 361.95 | 0.00 | 0.03 | 83 | 1011.2 |
| 20260905201224 | 20 | 0 | 0.0 | 0.0 | 361.95 | 0.00 | 0.03 | 80 | 1011.3 |
| 20260905200724 | 20 | 0 | 0.0 | 0.0 | 361.95 | 0.00 | 0.03 | 78 | 1011.2 |
| 20260905200225 | 21 | 0 | 0.0 | 0.0 | 361.95 | 0.00 | 0.03 | 78 | 1011.2 |
| 20260905195724 | 21 | 0 | 0.0 | 0.0 | 361.95 | 0.00 | 0.03 | 76 | 1011.2 |
| 20260905195224 | 21 | 0 | 0.0 | 0.0 | 361.95 | 0.00 | 0.03 | 73 | 1011.2 |
| 20260905194725 | 21 | 0 | 0.0 | 0.0 | 361.95 | 0.00 | 0.03 | 70 | 1011.2 |
| 20260905194224 | 22 | 0 | 0.0 | 0.0 | 361.95 | 0.00 | 0.03 | 70 | 1011.2 |
| 20260905193724 | 22 | 0 | 0.0 | 0.0 | 361.95 | 0.00 | 0.03 | 70 | 1011.2 |
| 20260905193224 | 22 | 0 | 0.0 | 0.0 | 361.95 | 0.00 | 0.03 | 70 | 1011.1 |
| 20260905192723 | 22 | 0 | 0.0 | 0.0 | 361.95 | 0.00 | 0.03 | 69 | 1011.2 |
| 20260905192223 | 22 | 0 | 0.0 | 0.0 | 361.95 | 0.00 | 0.03 | 69 | 1011.2 |
| 20260905191724 | 22 | 0 | 0.0 | 0.0 | 361.95 | 0.00 | 0.03 | 70 | 1011.2 |
| 20260905191223 | 22 | 0 | 0.0 | 0.0 | 361.95 | 0.00 | 0.03 | 71 | 1011.2 |
| 20260905190723 | 22 | 69 | 0.0 | 6.4 | 361.95 | 0.00 | 0.03 | 71 | 1011.1 |
| 20260905190224 | 22 | 128 | 3.2 | 3.2 | 361.95 | 0.00 | 0.03 | 72 | 1011.2 |
| 20260905185723 | 22 | 0 | 0.0 | 0.0 | 361.95 | 0.00 | 0.03 | 73 | 1011.2 |
| 20260905185223 | 22 | 0 | 0.0 | 0.0 | 361.95 | 0.00 | 0.03 | 71 | 1011.2 |
| 20260905184725 | 22 | 0 | 0.0 | 0.0 | 361.95 | 0.00 | 0.03 | 70 | 1011.3 |
| 20260905184223 | 22 | 0 | 0.0 | 0.0 | 361.95 | 0.00 | 0.03 | 69 | 1011.2 |
| 20260905183723 | 23 | 66 | 0.0 | 4.8 | 361.95 | 0.00 | 0.03 | 67 | 1011.2 |
| 20260905183225 | 23 | 129 | 0.0 | 3.2 | 361.95 | 0.00 | 0.03 | 66 | 1011.1 |
| 20260905182723 | 23 | 58 | 1.6 | 4.8 | 361.92 | 0.00 | 0.00 | 64 | 1011.1 |
| 20260905182223 | 22 | 48 | 3.2 | 3.2 | 361.92 | 0.00 | 0.00 | 65 | 1011.2 |
| 20260905181724 | 22 | 229 | 0.0 | 3.2 | 361.92 | 0.00 | 0.00 | 65 | 1011.2 |
| 20260905181223 | 22 | 260 | 0.0 | 4.8 | 361.92 | 0.00 | 0.00 | 66 | 1011.1 |
| 20260905180224 | 22 | 0 | 0.0 | 0.0 | 361.92 | 0.00 | 0.00 | 65 | 1011.2 |
| 20260905175723 | 22 | 0 | 0.0 | 0.0 | 361.92 | 0.00 | 0.00 | 72 | 1011.3 |
| 20260905175223 | 22 | 0 | 0.0 | 0.0 | 361.92 | 0.00 | 0.00 | 69 | 1011.2 |
| 20260905174724 | 22 | 0 | 0.0 | 0.0 | 361.92 | 0.00 | 0.00 | 68 | 1011.2 |
| 20260905174223 | 22 | 0 | 0.0 | 0.0 | 361.92 | 0.00 | 0.00 | 69 | 1011.2 |
| 20260905173723 | 22 | 0 | 0.0 | 0.0 | 361.92 | 0.00 | 0.00 | 69 | 1011.2 |
| 20260905173224 | 22 | 148 | 0.0 | 3.2 | 361.92 | 0.00 | 0.00 | 70 | 1011.2 |
| 20260905172223 | 22 | 288 | 0.0 | 9.7 | 361.92 | 0.00 | 0.00 | 67 | 1011.0 |
| 20260905171725 | 22 | 0 | 0.0 | 0.0 | 361.92 | 0.00 | 0.00 | 66 | 1010.9 |
| 20260905171223 | 22 | 82 | 0.0 | 3.2 | 361.92 | 0.00 | 0.00 | 66 | 1010.9 |
| 20260905170224 | 22 | 53 | 0.0 | 3.2 | 361.92 | 0.00 | 0.00 | 70 | 1011.0 |
| 20260905165723 | 21 | 0 | 0.0 | 0.0 | 361.92 | 0.00 | 0.00 | 75 | 1011.0 |
| 20260905165223 | 22 | 0 | 0.0 | 0.0 | 361.92 | 0.00 | 0.00 | 73 | 1011.1 |
| 20260905164724 | 22 | 0 | 0.0 | 0.0 | 361.92 | 0.00 | 0.00 | 72 | 1011.1 |
| 20260905164223 | 22 | 304 | 0.0 | 1.6 | 361.92 | 0.00 | 0.00 | 69 | 1011.1 |
| 20260905163723 | 22 | 21 | 0.0 | 1.6 | 361.92 | 0.00 | 0.00 | 67 | 1011.0 |
| 20260905163224 | 22 | 3 | 0.0 | 3.2 | 361.92 | 0.00 | 0.00 | 67 | 1011.0 |
| 20260905162723 | 22 | 316 | 1.6 | 3.2 | 361.92 | 0.00 | 0.00 | 67 | 1011.0 |
| 20260905161724 | 22 | 295 | 0.0 | 1.6 | 361.92 | 0.00 | 0.00 | 71 | 1011.0 |
| 20260905161223 | 22 | 302 | 0.0 | 6.4 | 361.92 | 0.00 | 0.00 | 71 | 1011.0 |
| 20260905160723 | 22 | 30 | 1.6 | 3.2 | 361.92 | 0.00 | 0.00 | 70 | 1011.0 |
| 20260905160224 | 22 | 277 | 1.6 | 3.2 | 361.92 | 0.00 | 0.00 | 69 | 1011.0 |
| 20260905155723 | 22 | 135 | 0.0 | 6.4 | 361.92 | 0.00 | 0.00 | 68 | 1011.1 |
| 20260905155223 | 22 | 113 | 1.6 | 1.6 | 361.92 | 0.00 | 0.00 | 67 | 1011.0 |
| 20260905154724 | 22 | 76 | 0.0 | 4.8 | 361.92 | 0.00 | 0.00 | 68 | 1011.0 |
| 20260905153724 | 22 | 73 | 0.0 | 4.8 | 361.92 | 0.00 | 0.00 | 71 | 1011.1 |
| 20260905153224 | 21 | 30 | 1.6 | 6.4 | 361.92 | 0.00 | 0.00 | 70 | 1011.2 |
| 20260905152723 | 21 | 301 | 3.2 | 4.8 | 361.92 | 0.00 | 0.00 | 70 | 1011.2 |
| 20260905152223 | 21 | 252 | 1.6 | 6.4 | 361.92 | 0.00 | 0.00 | 69 | 1011.1 |
| 20260905151724 | 21 | 103 | 0.0 | 3.2 | 361.92 | 0.00 | 0.00 | 72 | 1011.2 |
| 20260905151223 | 21 | 146 | 0.0 | 3.2 | 361.92 | 0.00 | 0.00 | 71 | 1011.2 |
| 20260905150723 | 21 | 108 | 0.0 | 8.0 | 361.92 | 0.00 | 0.00 | 71 | 1011.2 |
| 20260905150224 | 21 | 6 | 0.0 | 4.8 | 361.92 | 0.00 | 0.00 | 72 | 1011.2 |
| 20260905145723 | 21 | 240 | 1.6 | 4.8 | 361.92 | 0.00 | 0.00 | 72 | 1011.2 |
| 20260905145223 | 21 | 121 | 0.0 | 4.8 | 361.92 | 0.00 | 0.00 | 72 | 1011.1 |
| 20260905144724 | 21 | 183 | 1.6 | 4.8 | 361.92 | 0.00 | 0.00 | 71 | 1011.2 |
| 20260905143723 | 21 | 136 | 1.6 | 3.2 | 361.92 | 0.00 | 0.00 | 74 | 1011.2 |
| 20260905143224 | 21 | 231 | 0.0 | 4.8 | 361.92 | 0.00 | 0.00 | 74 | 1011.2 |
| 20260905142723 | 21 | 193 | 3.2 | 3.2 | 361.92 | 0.00 | 0.00 | 73 | 1011.3 |
| 20260905142223 | 21 | 240 | 0.0 | 4.8 | 361.92 | 0.00 | 0.00 | 74 | 1011.3 |
| 20260905141724 | 21 | 300 | 1.6 | 4.8 | 361.92 | 0.00 | 0.00 | 74 | 1011.3 |
| 20260905141224 | 21 | 293 | 0.0 | 9.7 | 361.92 | 0.00 | 0.00 | 75 | 1011.3 |
| 20260905140723 | 21 | 114 | 0.0 | 3.2 | 361.92 | 0.00 | 0.00 | 77 | 1011.3 |
| 20260905140224 | 20 | 277 | 0.0 | 3.2 | 361.92 | 0.00 | 0.00 | 75 | 1011.3 |
| 20260905135223 | 20 | 146 | 3.2 | 4.8 | 361.92 | 0.00 | 0.00 | 77 | 1011.2 |
| 20260905134724 | 20 | 110 | 0.0 | 6.4 | 361.92 | 0.00 | 0.00 | 77 | 1011.2 |
| 20260905133736 | 20 | 290 | 3.2 | 9.7 | 361.92 | 0.00 | 0.00 | 76 | 1011.1 |
| 20260905133224 | 19 | 243 | 3.2 | 4.8 | 361.92 | 0.00 | 0.00 | 80 | 1011.0 |
| 20260905132723 | 19 | 169 | 1.6 | 3.2 | 361.92 | 0.00 | 0.00 | 81 | 1011.0 |
| 20260905132223 | 19 | 312 | 0.0 | 4.8 | 361.92 | 0.00 | 0.00 | 82 | 1011.0 |
| 20260905131724 | 18 | 0 | 0.0 | 0.0 | 361.92 | 0.00 | 0.00 | 82 | 1011.0 |
| 20260905131223 | 18 | 242 | 0.0 | 1.6 | 361.92 | 0.00 | 0.00 | 83 | 1010.9 |
| 20260905130723 | 18 | 24 | 0.0 | 3.2 | 361.92 | 0.00 | 0.00 | 82 | 1010.8 |
| 20260905130224 | 18 | 316 | 0.0 | 3.2 | 361.92 | 0.00 | 0.00 | 83 | 1010.7 |
| 20260905125723 | 18 | 319 | 0.0 | 1.6 | 361.92 | 0.00 | 0.00 | 83 | 1010.7 |
| 20260905125223 | 18 | 276 | 1.6 | 1.6 | 361.92 | 0.00 | 0.00 | 84 | 1010.7 |
| 20260905124723 | 18 | 278 | 0.0 | 4.8 | 361.92 | 0.00 | 0.00 | 84 | 1010.7 |
| 20260905124223 | 18 | 309 | 0.0 | 8.0 | 361.92 | 0.00 | 0.00 | 86 | 1010.7 |
| 20260905123723 | 18 | 68 | 0.0 | 3.2 | 361.92 | 0.00 | 0.00 | 88 | 1010.6 |
| 20260905123223 | 17 | 277 | 0.0 | 4.8 | 361.92 | 0.00 | 0.00 | 89 | 1010.6 |
| 20260905122223 | 17 | 240 | 0.0 | 1.6 | 361.92 | 0.00 | 0.00 | 93 | 1010.4 |
| 20260905121724 | 17 | 0 | 0.0 | 0.0 | 361.92 | 0.00 | 0.00 | 93 | 1010.4 |
| 20260905121223 | 17 | 0 | 0.0 | 0.0 | 361.92 | 0.00 | 0.00 | 94 | 1010.2 |
| 20260905120723 | 17 | 0 | 0.0 | 0.0 | 361.92 | 0.00 | 0.00 | 94 | 1010.2 |
| 20260905120223 | 16 | 0 | 0.0 | 0.0 | 361.92 | 0.00 | 0.00 | 95 | 1010.3 |
| 20260905115723 | 16 | 0 | 0.0 | 0.0 | 361.92 | 0.00 | 0.00 | 95 | 1010.2 |
| 20260905115223 | 16 | 0 | 0.0 | 0.0 | 361.92 | 0.00 | 0.00 | 95 | 1010.1 |
| 20260905114723 | 16 | 0 | 0.0 | 0.0 | 361.92 | 0.00 | 0.00 | 95 | 1010.1 |
| 20260905113228 | 16 | 0 | 0.0 | 0.0 | 361.92 | 0.00 | 0.00 | 96 | 1010.0 |
| 20260905112723 | 16 | 0 | 0.0 | 0.0 | 361.92 | 0.00 | 0.00 | 96 | 1010.0 |
| 20260905112223 | 15 | 0 | 0.0 | 0.0 | 361.92 | 0.00 | 0.00 | 96 | 1010.0 |
| 20260905111729 | 15 | 287 | 0.0 | 8.0 | 361.92 | 0.00 | 0.00 | 97 | 1010.0 |
| 20260905111223 | 15 | 290 | 4.8 | 4.8 | 361.92 | 0.00 | 0.00 | 97 | 1010.1 |
| 20260905110723 | 15 | 281 | 3.2 | 4.8 | 361.92 | 0.00 | 0.00 | 98 | 1010.0 |
| 20260905110227 | 15 | 287 | 3.2 | 6.4 | 361.92 | 0.00 | 0.00 | 97 | 1010.0 |
| 20260905105723 | 15 | 0 | 0.0 | 0.0 | 361.92 | 0.00 | 0.00 | 97 | 1009.9 |
| 20260905104723 | 15 | 288 | 0.0 | 4.8 | 361.92 | 0.00 | 0.00 | 97 | 1009.9 |
| 20260905104223 | 15 | 0 | 0.0 | 0.0 | 361.92 | 0.00 | 0.00 | 97 | 1009.9 |
| 20260905103723 | 15 | 0 | 0.0 | 0.0 | 361.92 | 0.00 | 0.00 | 97 | 1009.9 |
| 20260905103223 | 15 | 0 | 0.0 | 0.0 | 361.92 | 0.00 | 0.00 | 97 | 1009.9 |
| 20260905102223 | 15 | 0 | 0.0 | 0.0 | 361.92 | 0.00 | 0.00 | 97 | 1009.9 |
| 20260905101723 | 15 | 0 | 0.0 | 0.0 | 361.92 | 0.00 | 0.00 | 97 | 1009.8 |